"Pseudo-MPEC" for P20ZYrD

Created 2020 May 27 22:07:15 UT using Find_Orb

Click here for an explanation of pseudo-MPECs

 
 Astrometry: 
     P20ZYrD  C2020 05 11Kn6)S_RT[@g2!iAstrometryU7jredacted;D2click3,BmH27IMF52
     P20ZYrD  C2020 05 11b==EqVwQ12K)^_Cmv38bG0nC$pUhereo?\17Vb0-9A@%td=J`*bIF52
     P20ZYrD  C2020 05 11QrqOPB^yaA0xuf`+tS'nr,hNp_x0i:3u3_$='bqh)'AXn'dB5E6-F52
     P20ZYrD KC2020 05 12QX[!=41`NforE[;*_31*Sexplanation+1tYV(!k'kRXIg3f!D'PW34
     P20ZYrD KC2020 05 12CE'X8$FcN@'avccAj.sXa5x4%F1Bl9x$+VAQsoLU0HsDc\q?:2/8W34
     P20ZYrD KC2020 05 12OCruTnAmlFSg*u6V*FY#t#fVN_Janb6k4eF(-mNSF*@+Z0adVtg*W34

Station data:
(F52) Pan-STARRS 2, Haleakala  (N20.707384 W156.255910)  US/Hawaii. 1.8-m
   Ritchey-Chrétien + CCD.
(W34) Squirrel Valley Observatory, Columbus  (N35.225393 W82.154700)
   US/North Carolina.  Observer R. L. Flynn. 0.35-m f/1.9 Schmidt-Cassegrain
   + CCD.

Orbital elements:  P20ZYrD
   Perihelion 2019 Dec 24.366472 +/- 1.65 TT =  8:47:43 (JD 2458841.866472)
Epoch 2020 May 12.0 TT = JDT 2458981.5   Earth MOID: 0.0139   AutoNEOCP
M 152.31964387 +/- 0.9              (J2000 ecliptic)
n   1.09085293 +/- 0.006            Peri.   19.77734 +/- 0.56
a   0.93459886 +/- 0.00343          Node    53.64144 +/- 0.031
e   0.1074862 +/- 0.00516           Incl.    2.95843 +/- 0.055
P   0.90/330.01d           H 27.9   G  0.15   U  9.3  
q 0.83414235 +/- 0.00789    Q 1.03505536 +/- 0.00103
From 6 observations 2020 May 11-12 (20.2 hr); mean residual 0".56
Residuals in arcseconds: 
200511 F52  .04+  .71-    200511 F52  .18-  1.2+    200512 W34  .66-  .37-    
200511 F52  .14+  .44-    200512 W34  .03+  .35-    200512 W34  .63+  .67+    

Ephemerides (geocentric):
Date (UTC) HH   RA              Dec         delta   r     elong  mag " sig PA
---- -- -- --  -------------   -----------  ------ ------ -----  --- ---- ---
2020 05 27 22  12 06 22.614   -18 08 14.51  .03850 1.0336 120.7 23.0  205  45
2020 05 27 23  12 06 19.101   -18 09 44.52  .03855 1.0336 120.7 23.0  206  45
2020 05 28 00  12 06 15.608   -18 11 14.30  .03861 1.0336 120.6 23.0  206  45
2020 05 28 01  12 06 12.132   -18 12 43.86  .03866 1.0336 120.6 23.0  207  45
2020 05 28 02  12 06 08.676   -18 14 13.21  .03872 1.0337 120.5 23.0  207  45
2020 05 28 03  12 06 05.238   -18 15 42.33  .03878 1.0337 120.5 23.0  208  45
2020 05 28 04  12 06 01.819   -18 17 11.24  .03883 1.0337 120.4 23.0  208  45
2020 05 28 05  12 05 58.419   -18 18 39.93  .03889 1.0337 120.4 23.1  209  45
2020 05 28 06  12 05 55.037   -18 20 08.40  .03894 1.0337 120.3 23.1  209  45
2020 05 28 07  12 05 51.673   -18 21 36.66  .03900 1.0337 120.3 23.1  210  45
2020 05 28 08  12 05 48.328   -18 23 04.71  .03905 1.0337 120.3 23.1  210  45
2020 05 28 09  12 05 45.000   -18 24 32.54  .03911 1.0337 120.2 23.1  211  45
2020 05 28 10  12 05 41.691   -18 26 00.16  .03917 1.0337 120.2 23.1  211  45
2020 05 28 11  12 05 38.400   -18 27 27.57  .03922 1.0337 120.1 23.1  212  45
2020 05 28 12  12 05 35.127   -18 28 54.77  .03928 1.0338 120.1 23.1  212  45
2020 05 28 13  12 05 31.872   -18 30 21.76  .03933 1.0338 120.0 23.1  212  45
2020 05 28 14  12 05 28.635   -18 31 48.55  .03939 1.0338 120.0 23.1  213  45
2020 05 28 15  12 05 25.415   -18 33 15.12  .03944 1.0338 119.9 23.1  213  45
2020 05 28 16  12 05 22.214   -18 34 41.50  .03950 1.0338 119.9 23.1  214  45
2020 05 28 17  12 05 19.030   -18 36 07.66  .03956 1.0338 119.9 23.1  214  45
2020 05 28 18  12 05 15.863   -18 37 33.62  .03961 1.0338 119.8 23.1  215  45
2020 05 28 19  12 05 12.714   -18 38 59.38  .03967 1.0338 119.8 23.1  215  45
2020 05 28 20  12 05 09.583   -18 40 24.94  .03972 1.0338 119.7 23.1  216  45
2020 05 28 21  12 05 06.469   -18 41 50.29  .03978 1.0339 119.7 23.1  216  45
2020 05 28 22  12 05 03.372   -18 43 15.44  .03983 1.0339 119.6 23.1  217  45
2020 05 28 23  12 05 00.292   -18 44 40.40  .03989 1.0339 119.6 23.1  217  45
2020 05 29 00  12 04 57.230   -18 46 05.15  .03995 1.0339 119.6 23.1  218  45
2020 05 29 01  12 04 54.184   -18 47 29.71  .04000 1.0339 119.5 23.1  218  45
2020 05 29 02  12 04 51.156   -18 48 54.07  .04006 1.0339 119.5 23.1  218  45
2020 05 29 03  12 04 48.144   -18 50 18.23  .04011 1.0339 119.4 23.1  219  45
2020 05 29 04  12 04 45.150   -18 51 42.20  .04017 1.0339 119.4 23.2  219  45
2020 05 29 05  12 04 42.172   -18 53 05.97  .04023 1.0339 119.3 23.2  220  45
2020 05 29 06  12 04 39.211   -18 54 29.55  .04028 1.0339 119.3 23.2  220  45
2020 05 29 07  12 04 36.267   -18 55 52.94  .04034 1.0339 119.3 23.2  221  45
2020 05 29 08  12 04 33.339   -18 57 16.14  .04039 1.0340 119.2 23.2  221  45
2020 05 29 09  12 04 30.428   -18 58 39.14  .04045 1.0340 119.2 23.2  222  45
2020 05 29 10  12 04 27.533   -19 00 01.95  .04050 1.0340 119.1 23.2  222  45
2020 05 29 11  12 04 24.655   -19 01 24.58  .04056 1.0340 119.1 23.2  222  45
2020 05 29 12  12 04 21.793   -19 02 47.02  .04062 1.0340 119.0 23.2  223  45
2020 05 29 13  12 04 18.948   -19 04 09.26  .04067 1.0340 119.0 23.2  223  45
2020 05 29 14  12 04 16.118   -19 05 31.33  .04073 1.0340 119.0 23.2  224  45
2020 05 29 15  12 04 13.305   -19 06 53.20  .04078 1.0340 118.9 23.2  224  45
2020 05 29 16  12 04 10.508   -19 08 14.89  .04084 1.0340 118.9 23.2  225  45
2020 05 29 17  12 04 07.727   -19 09 36.40  .04089 1.0340 118.8 23.2  225  45
2020 05 29 18  12 04 04.962   -19 10 57.72  .04095 1.0341 118.8 23.2  226  45
2020 05 29 19  12 04 02.213   -19 12 18.86  .04101 1.0341 118.7 23.2  226  45
2020 05 29 20  12 03 59.479   -19 13 39.81  .04106 1.0341 118.7 23.2  226  45
2020 05 29 21  12 03 56.762   -19 15 00.59  .04112 1.0341 118.7 23.2  227  45